| time (UTC) | temp F | wind direction | speed knots | gust knots | rain 1hr in | rain 24hr in | rain mn in | humidity % | barometer mb |
| 20260506033840 | 52 | 340 | 7.8 | 14.8 | 0.00 | 0.00 | 0.00 | 80 | 1008.1 |
| 20260506032403 | 52 | 340 | 7.0 | 13.0 | 0.00 | 0.00 | 0.00 | 80 | 1008.2 |
| 20260506031846 | 52 | 350 | 6.1 | 11.3 | 0.00 | 0.00 | 0.00 | 80 | 1008.2 |
| 20260506030840 | 52 | 345 | 6.1 | 13.0 | 0.00 | 0.00 | 0.00 | 79 | 1008.2 |
| 20260506025402 | 52 | 338 | 7.8 | 13.0 | 0.00 | 0.00 | 0.00 | 79 | 1008.3 |
| 20260506024403 | 52 | 319 | 7.0 | 13.0 | 0.00 | 0.00 | 0.00 | 79 | 1008.3 |
| 20260506023402 | 52 | 346 | 7.0 | 11.3 | 0.00 | 0.00 | 0.00 | 79 | 1008.4 |
| 20260506022403 | 52 | 340 | 6.1 | 13.0 | 0.00 | 0.00 | 0.00 | 76 | 1008.4 |
| 20260506021402 | 52 | 326 | 7.0 | 13.9 | 0.00 | 0.00 | 0.00 | 76 | 1008.4 |
| 20260506020402 | 52 | 338 | 7.0 | 13.0 | 0.00 | 0.00 | 0.00 | 76 | 1008.5 |
| 20260506015405 | 52 | 348 | 6.1 | 10.4 | 0.00 | 0.00 | 0.00 | 76 | 1008.5 |
| 20260506014402 | 52 | 355 | 6.1 | 12.2 | 0.00 | 0.00 | 0.00 | 76 | 1008.5 |
| 20260506013403 | 52 | 355 | 5.2 | 11.3 | 0.00 | 0.00 | 0.00 | 75 | 1008.6 |
| 20260506012836 | 52 | 314 | 6.1 | 12.2 | 0.00 | 0.00 | 0.00 | 76 | 1008.5 |
| 20260506011850 | 52 | 5 | 6.1 | 11.3 | 0.00 | 0.00 | 0.00 | 76 | 1008.6 |
| 20260506010402 | 52 | 348 | 5.2 | 10.4 | 0.00 | 0.00 | 0.00 | 77 | 1008.7 |
| 20260506005402 | 51 | 34 | 5.2 | 12.2 | 0.00 | 0.00 | 0.00 | 76 | 1008.6 |
| 20260506004402 | 51 | 324 | 6.1 | 13.9 | 0.00 | 0.00 | 0.00 | 76 | 1008.7 |
| 20260506003402 | 52 | 55 | 5.2 | 12.2 | 0.00 | 0.00 | 0.00 | 76 | 1008.7 |
| 20260506002402 | 52 | 331 | 6.1 | 12.2 | 0.00 | 0.00 | 0.00 | 76 | 1008.8 |
| 20260506001402 | 52 | 322 | 5.2 | 12.2 | 0.00 | 0.00 | 0.00 | 76 | 1009.0 |
| 20260506000402 | 52 | 333 | 5.2 | 12.2 | 0.00 | 0.00 | 0.00 | 76 | 1009.0 |
| 20260505235412 | 52 | 316 | 5.2 | 11.3 | 0.00 | 0.00 | 0.00 | 75 | 1009.0 |
| 20260505234402 | 52 | 315 | 6.1 | 11.3 | 0.00 | 0.00 | 0.00 | 76 | 1009.0 |
| 20260505233402 | 52 | 5 | 6.1 | 13.0 | 0.00 | 0.00 | 0.00 | 76 | 1009.0 |
| 20260505232402 | 52 | 319 | 6.1 | 14.8 | 0.00 | 0.00 | 0.00 | 76 | 1009.0 |
| 20260505232316 | 52 | 53 | 5.2 | 14.8 | 0.00 | 0.00 | 0.00 | 76 | 1009.1 |
| 20260505231313 | 52 | 319 | 5.2 | 11.3 | 0.00 | 0.00 | 0.00 | 77 | 1009.2 |
| 20260505225406 | 52 | 333 | 5.2 | 13.0 | 0.00 | 0.00 | 0.00 | 77 | 1009.3 |
| 20260505224400 | 52 | 79 | 4.3 | 13.9 | 0.00 | 0.00 | 0.00 | 77 | 1009.4 |
| 20260505223400 | 52 | 0 | 5.2 | 12.2 | 0.00 | 0.00 | 0.00 | 77 | 1009.3 |
| 20260505222400 | 52 | 318 | 6.1 | 12.2 | 0.00 | 0.00 | 0.00 | 77 | 1009.4 |
| 20260505221400 | 53 | 75 | 7.0 | 13.0 | 0.00 | 0.00 | 0.00 | 76 | 1009.3 |
| 20260505220359 | 53 | 347 | 6.1 | 12.2 | 0.00 | 0.00 | 0.00 | 77 | 1009.4 |
| 20260505215847 | 53 | 0 | 7.0 | 17.4 | 0.00 | 0.00 | 0.00 | 76 | 1009.3 |
| 20260505214359 | 53 | 312 | 5.2 | 13.0 | 0.00 | 0.00 | 0.00 | 78 | 1009.4 |
| 20260505213846 | 53 | 327 | 5.2 | 11.3 | 0.00 | 0.00 | 0.00 | 78 | 1009.4 |
| 20260505212404 | 53 | 355 | 5.2 | 11.3 | 0.00 | 0.00 | 0.00 | 78 | 1009.5 |
| 20260505211838 | 53 | 40 | 7.0 | 13.9 | 0.00 | 0.00 | 0.00 | 77 | 1009.5 |
| 20260505210359 | 53 | 61 | 6.1 | 14.8 | 0.00 | 0.00 | 0.00 | 78 | 1009.5 |
| 20260505205410 | 53 | 344 | 6.1 | 13.0 | 0.00 | 0.00 | 0.00 | 79 | 1009.6 |
| 20260505204844 | 53 | 337 | 5.2 | 11.3 | 0.00 | 0.00 | 0.00 | 79 | 1009.6 |
| 20260505203359 | 53 | 35 | 6.1 | 12.2 | 0.00 | 0.00 | 0.00 | 79 | 1009.5 |
| 20260505202359 | 53 | 345 | 5.2 | 10.4 | 0.00 | 0.00 | 0.00 | 80 | 1009.5 |
| 20260505201359 | 53 | 309 | 6.1 | 13.9 | 0.00 | 0.00 | 0.00 | 81 | 1009.4 |
| 20260505200358 | 53 | 306 | 6.1 | 11.3 | 0.00 | 0.00 | 0.00 | 82 | 1009.5 |
| 20260505195359 | 53 | 317 | 6.1 | 12.2 | 0.00 | 0.00 | 0.00 | 81 | 1009.4 |
| 20260505194359 | 53 | 42 | 6.1 | 11.3 | 0.00 | 0.00 | 0.00 | 81 | 1009.3 |
| 20260505193852 | 53 | 355 | 6.1 | 13.9 | 0.00 | 0.00 | 0.00 | 81 | 1009.3 |
| 20260505192843 | 53 | 315 | 6.1 | 16.5 | 0.00 | 0.00 | 0.00 | 80 | 1009.1 |
| 20260505191359 | 53 | 306 | 6.1 | 13.9 | 0.00 | 0.00 | 0.00 | 80 | 1009.2 |
| 20260505190403 | 53 | 346 | 6.1 | 16.5 | 0.00 | 0.00 | 0.00 | 80 | 1009.1 |
| 20260505185843 | 53 | 325 | 7.8 | 14.8 | 0.00 | 0.00 | 0.00 | 80 | 1009.0 |
| 20260505184359 | 53 | 319 | 7.0 | 14.8 | 0.00 | 0.00 | 0.00 | 79 | 1008.8 |
| 20260505183842 | 54 | 345 | 7.8 | 18.2 | 0.00 | 0.00 | 0.00 | 80 | 1008.8 |
| 20260505182359 | 54 | 355 | 7.8 | 15.6 | 0.00 | 0.00 | 0.00 | 80 | 1008.8 |
| 20260505181358 | 54 | 340 | 7.8 | 16.5 | 0.00 | 0.00 | 0.00 | 80 | 1008.7 |
| 20260505180359 | 54 | 355 | 7.8 | 16.5 | 0.00 | 0.00 | 0.00 | 80 | 1008.7 |
| 20260505175358 | 54 | 309 | 8.7 | 16.5 | 0.00 | 0.00 | 0.00 | 80 | 1008.6 |
| 20260505174839 | 54 | 336 | 8.7 | 14.8 | 0.00 | 0.00 | 0.00 | 79 | 1008.7 |
| 20260505173359 | 54 | 350 | 7.8 | 13.9 | 0.00 | 0.00 | 0.00 | 79 | 1008.6 |
| 20260505172404 | 54 | 346 | 8.7 | 14.8 | 0.00 | 0.00 | 0.00 | 78 | 1008.7 |
| 20260505171358 | 54 | 321 | 8.7 | 15.6 | 0.00 | 0.00 | 0.00 | 78 | 1008.6 |
| 20260505170843 | 54 | 296 | 7.8 | 19.1 | 0.00 | 0.00 | 0.00 | 78 | 1008.7 |
| 20260505165359 | 55 | 340 | 7.8 | 14.8 | 0.00 | 0.00 | 0.00 | 78 | 1008.7 |
| 20260505164837 | 55 | 13 | 7.8 | 15.6 | 0.00 | 0.00 | 0.00 | 77 | 1008.8 |
| 20260505163403 | 55 | 351 | 7.8 | 15.6 | 0.00 | 0.00 | 0.00 | 77 | 1008.8 |
| 20260505162359 | 55 | 355 | 7.8 | 14.8 | 0.00 | 0.00 | 0.00 | 77 | 1008.7 |
| 20260505161359 | 55 | 9 | 8.7 | 15.6 | 0.00 | 0.00 | 0.00 | 78 | 1008.8 |
| 20260505160358 | 55 | 5 | 7.8 | 16.5 | 0.00 | 0.00 | 0.00 | 78 | 1008.9 |
| 20260505153358 | 55 | 44 | 7.8 | 14.8 | 0.00 | 0.00 | 0.00 | 78 | 1008.9 |
| 20260505152836 | 55 | 341 | 7.8 | 15.6 | 0.00 | 0.00 | 0.00 | 78 | 1009.1 |
| 20260505151359 | 55 | 26 | 7.8 | 15.6 | 0.00 | 0.00 | 0.00 | 79 | 1009.1 |
| 20260505150403 | 55 | 12 | 7.0 | 13.9 | 0.00 | 0.00 | 0.00 | 77 | 1009.1 |
| 20260505140358 | 56 | 350 | 8.7 | 16.5 | 0.00 | 0.00 | 0.00 | 76 | 1009.2 |
| 20260505124358 | 56 | 316 | 7.0 | 14.8 | 0.00 | 0.00 | 0.00 | 76 | 1009.7 |
| 20260505123358 | 56 | 348 | 7.0 | 13.9 | 0.00 | 0.00 | 0.00 | 76 | 1009.8 |
| 20260505122358 | 56 | 340 | 7.8 | 13.9 | 0.00 | 0.00 | 0.00 | 75 | 1009.8 |
| 20260505121358 | 56 | 338 | 8.7 | 16.5 | 0.00 | 0.00 | 0.00 | 76 | 1009.7 |
| 20260505120358 | 56 | 336 | 8.7 | 15.6 | 0.00 | 0.00 | 0.00 | 75 | 1009.8 |
| 20260505115358 | 56 | 13 | 7.8 | 16.5 | 0.00 | 0.00 | 0.00 | 76 | 1009.8 |
| 20260505114357 | 57 | 326 | 7.8 | 14.8 | 0.00 | 0.00 | 0.00 | 75 | 1009.8 |
| 20260505113358 | 57 | 321 | 7.8 | 15.6 | 0.00 | 0.00 | 0.00 | 74 | 1009.8 |
| 20260505112841 | 57 | 338 | 7.0 | 16.5 | 0.00 | 0.00 | 0.00 | 73 | 1009.8 |
| 20260505111355 | 56 | 355 | 7.0 | 13.9 | 0.00 | 0.00 | 0.00 | 74 | 1009.9 |
| 20260505110400 | 56 | 19 | 7.8 | 13.9 | 0.00 | 0.00 | 0.00 | 75 | 1010.0 |
| 20260505101355 | 56 | 5 | 7.0 | 14.8 | 0.00 | 0.00 | 0.00 | 75 | 1010.3 |
| 20260505100355 | 56 | 355 | 6.1 | 12.2 | 0.00 | 0.00 | 0.00 | 74 | 1010.3 |
| 20260505095400 | 56 | 331 | 7.0 | 13.0 | 0.00 | 0.00 | 0.00 | 74 | 1010.3 |
| 20260505094833 | 56 | 339 | 7.0 | 13.9 | 0.00 | 0.00 | 0.00 | 74 | 1010.4 |
| 20260505093838 | 56 | 319 | 7.0 | 12.2 | 0.00 | 0.00 | 0.00 | 75 | 1010.3 |
| 20260505092832 | 56 | 314 | 6.1 | 13.0 | 0.00 | 0.00 | 0.00 | 75 | 1010.4 |
| 20260505091837 | 56 | 331 | 6.1 | 13.0 | 0.00 | 0.00 | 0.00 | 76 | 1010.4 |
| 20260505090400 | 56 | 13 | 5.2 | 11.3 | 0.00 | 0.00 | 0.00 | 76 | 1010.5 |
| 20260505085357 | 55 | 326 | 5.2 | 13.0 | 0.00 | 0.00 | 0.00 | 77 | 1010.5 |
| 20260505084355 | 55 | 15 | 7.0 | 14.8 | 0.00 | 0.00 | 0.00 | 77 | 1010.5 |
| 20260505083356 | 55 | 335 | 6.1 | 10.4 | 0.00 | 0.00 | 0.00 | 77 | 1010.6 |
| 20260505082355 | 55 | 0 | 6.1 | 12.2 | 0.00 | 0.00 | 0.00 | 77 | 1010.6 |
| 20260505081355 | 55 | 331 | 5.2 | 11.3 | 0.00 | 0.00 | 0.00 | 77 | 1010.6 |
| 20260505080355 | 55 | 334 | 5.2 | 12.2 | 0.00 | 0.00 | 0.00 | 78 | 1010.4 |
| 20260505080330 | 55 | 350 | 6.1 | 14.8 | 0.00 | 0.00 | 0.00 | 79 | 1010.4 |
| 20260505074358 | 54 | 317 | 6.1 | 13.0 | 0.00 | 0.00 | 0.00 | 79 | 1010.4 |
| 20260505073826 | 54 | 313 | 6.1 | 10.4 | 0.00 | 0.00 | 0.00 | 80 | 1010.3 |
| 20260505072353 | 54 | 319 | 5.2 | 14.8 | 0.00 | 0.00 | 0.00 | 80 | 1010.2 |
| 20260505071353 | 54 | 343 | 7.0 | 12.2 | 0.00 | 0.00 | 0.00 | 81 | 1010.1 |
| 20260505070353 | 53 | 341 | 6.1 | 13.9 | 0.00 | 0.00 | 0.00 | 81 | 1010.1 |
| 20260505065353 | 53 | 344 | 7.0 | 12.2 | 0.00 | 0.00 | 0.00 | 81 | 1010.3 |
| 20260505064824 | 53 | 331 | 6.1 | 13.9 | 0.00 | 0.00 | 0.00 | 81 | 1010.3 |
| 20260505063353 | 53 | 322 | 6.1 | 11.3 | 0.00 | 0.00 | 0.00 | 81 | 1010.6 |
| 20260505062353 | 53 | 344 | 5.2 | 10.4 | 0.00 | 0.00 | 0.00 | 82 | 1010.7 |
| 20260505061357 | 53 | 59 | 4.3 | 9.6 | 0.00 | 0.00 | 0.00 | 83 | 1010.8 |
| 20260505060353 | 53 | 22 | 5.2 | 10.4 | 0.00 | 0.00 | 0.00 | 83 | 1010.8 |
| 20260505055352 | 52 | 56 | 5.2 | 9.6 | 0.00 | 0.00 | 0.00 | 83 | 1010.8 |
| 20260505054403 | 53 | 337 | 5.2 | 8.7 | 0.00 | 0.00 | 0.00 | 83 | 1010.8 |
| 20260505053353 | 52 | 304 | 4.3 | 10.4 | 0.00 | 0.00 | 0.00 | 83 | 1010.8 |
| 20260505052353 | 52 | 342 | 5.2 | 12.2 | 0.00 | 0.00 | 0.00 | 83 | 1010.8 |
| 20260505051353 | 53 | 0 | 5.2 | 9.6 | 0.00 | 0.00 | 0.00 | 84 | 1010.9 |
| 20260505050353 | 52 | 329 | 5.2 | 10.4 | 0.00 | 0.00 | 0.00 | 84 | 1010.8 |
| 20260505041351 | 53 | 348 | 4.3 | 8.7 | 0.00 | 0.00 | 0.00 | 84 | 1010.6 |
| 20260505040835 | 53 | 333 | 5.2 | 11.3 | 0.00 | 0.00 | 0.00 | 84 | 1010.7 |
| 20260505035351 | 53 | 326 | 5.2 | 9.6 | 0.00 | 0.00 | 0.00 | 85 | 1010.7 |
| 20260505034350 | 53 | 341 | 5.2 | 11.3 | 0.00 | 0.00 | 0.00 | 84 | 1010.8 |